LUKE OFFSHORE TEST PLATFORM NM South of Dauphin Island, AL (42040)

Conditions for Saturday

Daily
Weekly
Monthly
Marine Data Graph

Current Weather/Wave Observations

Air Temperature: 86° F
Humidity: 67
Wind direction (W Dir): West (255 - 264 Degrees)
Wind Speed (W Spd): 15.6 kts (17.9 mph)
Wind Gust (W Spd): 19.4 kts (22.4 mph)
Atmospheric Pressure (AP): 29.88 in

Updated: 6:40 AM CDT on July 29, 2017

Marine & Boating Location Search

Enter a coastal zip code for marine weather.

General Information

Location: 29.203 North -88.203 West
Buoy Type: 2.4-meter foam hull buoy
Buoy Hull: 2.4D05
Payload: SCOOP payload
Owned by: NDBC
Windspeed: Measured by obtained from anemometer
Sea Surface: Measured by Intake

Weather and Wave Data

Time Temp Humidity Wind Dominant Wave Wind Wave Pressure
  Air
(°F)
Water
(°F)
  Dir Speed
(kts)
Speed
(mph)
Period
(sec)
Height
(ft)
Range
(ft)
Period
(sec)
Height
(ft)
Range
(ft)
Atmo.
(in)
Tend.
(in)
20:10 87 88 61 SW 5.8 6.7 - - - 29.89 -
20:20 87 88 61 SW 7.8 8.9 - - - 29.89 -
20:30 87 88 63 SW 7.8 8.9 - - - 29.88 -
20:40 87 88 61 WSW 9.7 11.2 - - - 29.88 -
20:50 87 88 62 SW 7.8 8.9 0.66 exactly 0.7 - - - 29.89 -
21:00 87 88 62 SW 9.7 11.2 - - - 29.90 -
21:10 87 88 65 SW 7.8 8.9 - - - 29.90 -
21:20 87 88 65 SW 9.7 11.2 - - - 29.90 -
21:40 87 88 67 SW 9.7 11.2 - - - 29.90 -
21:50 87 88 67 SW 9.7 11.2 2 0.98 exactly 1.0 2 1.64 0.82 - 2.46 29.90 -
22:20 87 88 66 SW 11.7 13.4 - - - 29.91 -
22:30 87 87 66 SW 9.7 11.2 - - - 29.90 -
22:40 87 87 66 SW 11.7 13.4 - - - 29.91 -
22:50 87 87 65 SW 11.7 13.4 2 0.98 exactly 1.0 3 1.64 0.82 - 2.46 29.90 -
23:10 87 87 67 SW 11.7 13.4 - - - 29.90 -
23:20 87 87 68 SW 11.7 13.4 - - - 29.90 -
23:30 87 87 67 WSW 11.7 13.4 - - - 29.90 -
23:40 87 87 68 SW 11.7 13.4 - - - 29.90 -
23:50 86 87 69 SW 13.6 15.7 3 1.31 exactly 1.3 3 1.64 0.82 - 2.46 29.89 -
00:10 86 87 67 WSW 13.6 15.7 - - - 29.90 -
00:20 87 87 63 WSW 13.6 15.7 - - - 29.90 -
00:30 87 87 63 SW 13.6 15.7 - - - 29.90 -
00:40 87 87 65 WSW 11.7 13.4 - - - 29.90 -
00:50 86 87 69 WSW 11.7 13.4 3 1.64 exactly 1.6 3 1.64 0.82 - 2.46 29.90 -
01:10 86 87 67 WSW 13.6 15.7 - - - 29.89 -
01:20 86 87 67 SW 13.6 15.7 - - - 29.89 -
01:30 86 87 66 WSW 13.6 15.7 - - - 29.89 -
01:50 86 87 66 WSW 13.6 15.7 3 1.64 exactly 1.6 3 1.64 0.82 - 2.46 29.88 -
02:10 86 87 67 WSW 13.6 15.7 - - - 29.88 -
02:20 86 87 68 WSW 13.6 15.7 - - - 29.88 -
02:30 86 87 69 WSW 13.6 15.7 - - - 29.87 -
02:40 86 87 69 WSW 13.6 15.7 - - - 29.87 -
02:50 86 87 70 WSW 13.6 15.7 3 1.97 exactly 2.0 3 1.64 0.82 - 2.46 29.88 -
03:10 86 87 71 WSW 13.6 15.7 - - - 29.87 -
03:20 86 87 70 WSW 15.6 17.9 - - - 29.87 -
03:30 86
-
70 WSW 15.6 17.9 - - - 29.87 -
03:40 86 87 71 WSW 15.6 17.9 - - - 29.86 -
03:50 86 87 71 WSW 13.6 15.7 3 2.30 exactly 2.3 3 1.64 0.82 - 2.46 29.86 -
04:00 86 87 69 WSW 15.6 17.9 - - - 29.86 -0.03
04:10 86 87 69 WSW 15.6 17.9 - - - 29.86 -
04:20 86 87 70 WSW 13.6 15.7 - - - 29.86 -
04:40 86 87 69 WSW 15.6 17.9 - - - 29.86 -
04:50 86 87 68 WSW 15.6 17.9 3 2.30 exactly 2.3 3 1.64 0.82 - 2.46 29.86 -
05:10 86 87 67 WSW 17.5 20.1 - - - 29.86 -
05:20 86 87 68 WSW 15.6 17.9 - - - 29.86 -
05:30 86 87 69 WSW 15.6 17.9 - - - 29.86 -
05:40 86 87 70 West 15.6 17.9 - - - 29.86 -
05:50 86 87 69 West 15.6 17.9 4 2.62 exactly 2.6 4 3.28 2.46 - 4.10 29.87 -
06:00 86 87 68 West 15.6 17.9 - - - 29.87 -
06:10 86 87 67 West 15.6 17.9 - - - 29.87 -
06:20 86 87 66 West 15.6 17.9 - - - 29.87 -
06:30 86 87 67 West 15.6 17.9 - - - 29.88 -
06:40 86 87 67 West 15.6 17.9 - - - 29.88 -

Detailed Wave Spectra

Time Water Depth Wave Height Spectral Peak Period Average Wave Period Sampling Interval Wave Record
20:00 600 ft 0.82 ft 5.6 sec 3.9 sec 0.6 sec 2400 sec
22:00 600 ft 0.92 ft 2.2 sec 2.9 sec 0.6 sec 2400 sec
23:00 600 ft 0.98 ft 2.5 sec 2.9 sec 0.6 sec 2400 sec
00:00 600 ft 1.31 ft 3.0 sec 2.8 sec 0.6 sec 2400 sec
02:00 600 ft 1.74 ft 3.2 sec 3.0 sec 0.6 sec 2400 sec
05:00 600 ft 2.43 ft 3.4 sec 3.1 sec 0.6 sec 2400 sec